Location: ?????
(32.7281°N, 34.9563°E)
Time: 18:11:01
(UTC+00:00)

Cosmos 1812 Rocket - Pass Details

Date: 29 October 2020
Orbit: 605 x 632 km, 82.5° (Epoch: 29 November)

Event Time Altitude Azimuth Distance (km) Brightness Sun altitude
Rises 15:39:52 0° 163° (SSE) 2,893 6.9 -10.7°
Reaches altitude 10° 15:42:16 10° 154° (SSE) 1,986 6.0 -11.2°
Maximum altitude 15:46:11 32° 91° (E) 1,069 4.2 -12.0°
Drops below altitude 10° 15:50:05 10° 28° (NNE) 1,982 5.8 -12.8°
Sets 15:52:28 0° 19° (NNE) 2,887 6.7 -13.3°
